When you browse on this site, cookies collect data to enhance your experience and personalize the content and advertising you see.
Visit our Privacy Policy to learn more. By continuing to use the site, you agree to this use of cookies and data.
  • In Czech Republic
  • List of Countries
  • For 7 days
  • Water Temperature
  • Weather Map
  • Weather Widgets
  • user-avatar
    Login

    Hourly Weather Ondjiwa

    Today, 26 February, Wednesday

    Time Temperature Precipitation Wind Pressure Humidity
    00:00 +25°C° 0.1 mm 2 mps 666 mmHg 68%
    01:00 +24°C° 0.1 mm 1 mps 666 mmHg 71%
    02:00 +24°C° 0.6 mm 1 mps 666 mmHg 76%
    03:00 +23°C° 0.6 mm 2 mps 665 mmHg 81%
    04:00 +21°C° 0.6 mm 2 mps 665 mmHg 86%
    05:00 +21°C° 0.3 mm 2 mps 665 mmHg 87%
    06:00 +21°C° 0.3 mm 3 mps 666 mmHg 87%
    07:00 +21°C° 0.3 mm 3 mps 666 mmHg 88%
    08:00 +25°C° 0 mm 3 mps 667 mmHg 78%
    09:00 +27°C° 0 mm 2 mps 667 mmHg 69%
    10:00 +29°C° 0 mm 2 mps 667 mmHg 59%
    11:00 +30°C° 0 mm 2 mps 667 mmHg 55%
    12:00 +31°C° 0 mm 2 mps 667 mmHg 50%
    13:00 +32°C° 0 mm 2 mps 666 mmHg 45%
    14:00 +32°C° 0 mm 2 mps 666 mmHg 45%
    15:00 +33°C° 0 mm 3 mps 665 mmHg 44%
    16:00 +33°C° 0 mm 3 mps 664 mmHg 44%
    17:00 +31°C° 0 mm 3 mps 664 mmHg 48%
    18:00 +29°C° 0 mm 3 mps 664 mmHg 53%
    19:00 +28°C° 0 mm 3 mps 664 mmHg 57%
    20:00 +27°C° 0 mm 3 mps 665 mmHg 60%
    21:00 +26°C° 0 mm 3 mps 665 mmHg 62%
    22:00 +26°C° 0 mm 3 mps 666 mmHg 64%
    23:00 +25°C° 0 mm 2 mps 666 mmHg 66%

    Tomorrow, 27 February, Thursday

    Time Temperature Precipitation Wind Pressure Humidity
    00:00 +25°C° 0 mm 2 mps 666 mmHg 67%
    01:00 +25°C° 0 mm 1 mps 666 mmHg 69%
    02:00 +25°C° 0 mm 1 mps 665 mmHg 71%
    03:00 +22°C° 0 mm 0 mps 665 mmHg 73%
    04:00 +22°C° 0 mm 0 mps 665 mmHg 76%
    05:00 +24°C° 0.1 mm 1 mps 665 mmHg 76%
    06:00 +24°C° 0.1 mm 1 mps 666 mmHg 77%
    07:00 +24°C° 0.1 mm 2 mps 666 mmHg 77%
    08:00 +26°C° 0.3 mm 2 mps 667 mmHg 69%
    09:00 +28°C° 0.3 mm 2 mps 667 mmHg 61%
    10:00 +30°C° 0.3 mm 2 mps 667 mmHg 53%
    11:00 +31°C° 0 mm 2 mps 667 mmHg 49%
    12:00 +32°C° 0 mm 2 mps 666 mmHg 44%
    13:00 +34°C° 0 mm 2 mps 666 mmHg 40%
    14:00 +34°C° 0 mm 3 mps 665 mmHg 40%
    15:00 +34°C° 0 mm 3 mps 665 mmHg 41%
    16:00 +34°C° 0 mm 3 mps 664 mmHg 41%
    17:00 +31°C° 0.2 mm 3 mps 664 mmHg 51%
    18:00 +28°C° 0.2 mm 3 mps 664 mmHg 61%
    19:00 +26°C° 0.2 mm 3 mps 664 mmHg 71%
    20:00 +26°C° 0.2 mm 3 mps 664 mmHg 72%
    21:00 +25°C° 0.2 mm 3 mps 665 mmHg 74%
    22:00 +25°C° 0.2 mm 2 mps 666 mmHg 75%
    23:00 +24°C° 2.1 mm 2 mps 665 mmHg 80%

    Day after tomorrow, 28 February, Friday

    Time Temperature Precipitation Wind Pressure Humidity
    00:00 +24°C° 2.1 mm 2 mps 665 mmHg 84%
    01:00 +23°C° 2.1 mm 2 mps 665 mmHg 88%
    02:00 +23°C° 1.2 mm 2 mps 665 mmHg 88%
    03:00 +23°C° 1.2 mm 2 mps 664 mmHg 89%
    04:00 +21°C° 1.2 mm 2 mps 664 mmHg 89%
    05:00 +21°C° 1.1 mm 2 mps 665 mmHg 89%
    06:00 +21°C° 1.1 mm 2 mps 665 mmHg 88%
    07:00 +21°C° 1.1 mm 2 mps 665 mmHg 88%
    08:00 +23°C° 0.6 mm 2 mps 666 mmHg 83%
    09:00 +24°C° 0.6 mm 2 mps 666 mmHg 78%
    10:00 +25°C° 0.6 mm 2 mps 666 mmHg 74%
    11:00 +24°C° 1.7 mm 2 mps 666 mmHg 79%
    12:00 +23°C° 1.7 mm 2 mps 665 mmHg 85%
    13:00 +21°C° 1.7 mm 2 mps 664 mmHg 90%
    14:00 +21°C° 1.4 mm 2 mps 664 mmHg 89%
    15:00 +23°C° 1.4 mm 2 mps 664 mmHg 87%
    16:00 +23°C° 1.4 mm 2 mps 663 mmHg 86%
    17:00 +23°C° 0.7 mm 2 mps 664 mmHg 88%
    18:00 +21°C° 0.7 mm 2 mps 664 mmHg 90%
    19:00 +22°C° 0.7 mm 1 mps 664 mmHg 91%
    20:00 +21°C° 1.5 mm 2 mps 665 mmHg 92%
    21:00 +21°C° 1.5 mm 2 mps 665 mmHg 92%
    22:00 +21°C° 1.5 mm 2 mps 665 mmHg 92%
    23:00 +21°C° 3.5 mm 3 mps 665 mmHg 93%

    29 February, Saturday

    Time Temperature Precipitation Wind Pressure Humidity
    00:00 +20°C° 3.5 mm 3 mps 664 mmHg 94%
    01:00 +20°C° 3.5 mm 4 mps 664 mmHg 95%
    02:00 +20°C° 4 mm 4 mps 664 mmHg 94%
    03:00 +20°C° 4 mm 4 mps 664 mmHg 94%
    04:00 +19°C° 4 mm 4 mps 664 mmHg 93%
    05:00 +19°C° 4.1 mm 4 mps 664 mmHg 93%
    06:00 +19°C° 4.1 mm 4 mps 664 mmHg 92%
    07:00 +19°C° 4.1 mm 3 mps 665 mmHg 92%
    08:00 +19°C° 1.3 mm 4 mps 665 mmHg 91%
    09:00 +19°C° 1.3 mm 4 mps 666 mmHg 90%
    10:00 +20°C° 1.3 mm 5 mps 666 mmHg 89%
    11:00 +21°C° 0.2 mm 6 mps 666 mmHg 81%
    12:00 +22°C° 0.2 mm 7 mps 666 mmHg 73%
    13:00 +23°C° 0.2 mm 9 mps 666 mmHg 65%
    14:00 +23°C° 0 mm 7 mps 666 mmHg 69%
    15:00 +22°C° 0 mm 6 mps 665 mmHg 73%
    16:00 +21°C° 0 mm 4 mps 664 mmHg 76%
    17:00 +21°C° 0 mm 3 mps 665 mmHg 77%
    18:00 +21°C° 0 mm 2 mps 665 mmHg 78%
    19:00 +21°C° 0 mm 2 mps 665 mmHg 79%
    20:00 +22°C° 0 mm 1 mps 666 mmHg 80%
    21:00 +22°C° 0 mm 1 mps 666 mmHg 81%
    22:00 +22°C° 0 mm 1 mps 667 mmHg 83%
    23:00 +21°C° 0 mm 2 mps 666 mmHg 83%

    1 March, Sunday

    Time Temperature Precipitation Wind Pressure Humidity
    00:00 +20°C° 0 mm 2 mps 666 mmHg 83%
    01:00 +20°C° 0 mm 3 mps 666 mmHg 83%
    02:00 +20°C° 0 mm 3 mps 666 mmHg 84%
    03:00 +20°C° 0 mm 2 mps 666 mmHg 84%
    04:00 +20°C° 0 mm 2 mps 665 mmHg 85%
    05:00 +20°C° 0.1 mm 2 mps 666 mmHg 85%
    06:00 +20°C° 0.1 mm 2 mps 666 mmHg 86%
    07:00 +20°C° 0.1 mm 2 mps 666 mmHg 86%
    08:00 +19°C° 0.7 mm 2 mps 667 mmHg 85%
    09:00 +19°C° 0.7 mm 3 mps 667 mmHg 84%
    10:00 +19°C° 0.7 mm 3 mps 667 mmHg 83%
    11:00 +19°C° 0.1 mm 3 mps 667 mmHg 80%
    12:00 +20°C° 0.1 mm 3 mps 666 mmHg 78%
    13:00 +20°C° 0.1 mm 3 mps 666 mmHg 75%
    14:00 +22°C° 0 mm 3 mps 666 mmHg 67%
    15:00 +25°C° 0 mm 4 mps 666 mmHg 58%
    16:00 +27°C° 0 mm 4 mps 666 mmHg 50%
    17:00 +25°C° 0 mm 4 mps 665 mmHg 53%
    18:00 +24°C° 0 mm 3 mps 665 mmHg 55%
    19:00 +22°C° 0 mm 3 mps 665 mmHg 57%
    20:00 +21°C° 0 mm 2 mps 665 mmHg 57%
    21:00 +21°C° 0 mm 2 mps 666 mmHg 57%
    22:00 +22°C° 0 mm 1 mps 666 mmHg 57%
    23:00 +21°C° 0 mm 1 mps 666 mmHg 57%

    2 March, Monday

    Time Temperature Precipitation Wind Pressure Humidity
    00:00 +21°C° 0 mm 1 mps 666 mmHg 56%
    01:00 +20°C° 0 mm 2 mps 666 mmHg 56%
    02:00 +19°C° 0 mm 2 mps 666 mmHg 57%
    03:00 +19°C° 0 mm 2 mps 665 mmHg 58%
    04:00 +18°C° 0 mm 2 mps 665 mmHg 59%
    05:00 +18°C° 0 mm 2 mps 665 mmHg 60%
    06:00 +18°C° 0 mm 2 mps 666 mmHg 61%
    07:00 +18°C° 0 mm 2 mps 666 mmHg 62%
    08:00 +21°C° 0 mm 2 mps 666 mmHg 54%
    09:00 +24°C° 0 mm 2 mps 667 mmHg 46%
    10:00 +26°C° 0 mm 2 mps 667 mmHg 38%
    11:00 +27°C° 0 mm 2 mps 667 mmHg 36%
    12:00 +28°C° 0 mm 2 mps 667 mmHg 35%
    13:00 +30°C° 0 mm 2 mps 666 mmHg 34%
    14:00 +30°C° 0 mm 2 mps 666 mmHg 34%
    15:00 +30°C° 0 mm 2 mps 665 mmHg 34%
    16:00 +31°C° 0 mm 3 mps 665 mmHg 35%
    17:00 +29°C° 0 mm 2 mps 664 mmHg 39%
    18:00 +27°C° 0 mm 1 mps 664 mmHg 43%
    19:00 +25°C° 0 mm 1 mps 664 mmHg 47%
    20:00 +25°C° 0 mm 1 mps 664 mmHg 47%
    21:00 +24°C° 0 mm 1 mps 665 mmHg 46%
    22:00 +22°C° 0 mm 0 mps 666 mmHg 46%
    23:00 +23°C° 0 mm 1 mps 665 mmHg 47%
    Show more